Terminal Aerodrome Forecast
Issued by NWS

Home | Current Version | Previous Version | Text Only | Print | Product List | Glossary On
Versions: 1 2 3 4 5 6 7 8 9 10 11 12 13 14 15 16 17 18 19 20 21 22 23 24 25 26
000
FTUS46 KSGX 190900 AAA
TAFSAN
TAF AMD
KSAN 190905Z 1909/2012 VRB06KT P6SM BKN025
      TEMPO 1909/1911 SCT025
     FM191800 29009KT P6SM SCT025
     FM200100 VRB04KT P6SM OVC025=

USA.gov is the U.S. government's official web portal to all federal, state and local government web resources and services.